CW0677 Weather Reports


Display with metric or nautical units.
time (UTC)temp
F
wind
direction
speed
MPH
gust
MPH
rain 1hr
in
rain 24hr
in
rain mn
in
humidity
%
barometer
mb
20260509074554 53 0 1.0 4.0 0.00 0.00 0.00 86 1015.8
20260509073107 53 0 0.0 3.0 0.00 0.00 0.00 86 1015.8
20260509071558 54 158 0.0 3.0 0.00 0.00 0.00 86 1015.8
20260509070057 54 0 0.0 4.0 0.00 0.00 0.00 85 1016.0
20260509064555 54 154 1.0 4.0 0.00 0.00 0.00 85 1016.0
20260509063104 54 164 0.0 2.0 0.00 0.00 0.00 85 1016.0
20260509061559 54 205 0.0 4.0 0.00 0.00 0.00 84 1016.1
20260509060056 55 0 2.0 5.0 0.00 0.00 0.00 84 1016.1
20260509054555 55 0 1.0 5.0 0.00 0.00 0.00 84 1016.2
20260509053054 55 0 0.0 4.0 0.00 0.00 0.00 84 1016.3
20260509051553 55 171 0.0 4.0 0.00 0.00 0.00 83 1016.2
20260509044559 56 0 0.0 6.0 0.00 0.00 0.00 82 1016.0
20260509043059 57 186 1.0 8.0 0.00 0.00 0.00 81 1015.8
20260509041558 58 158 2.0 6.0 0.00 0.00 0.00 80 1015.7
20260509040055 59 200 1.0 5.0 0.00 0.00 0.00 79 1015.6
20260509034601 59 186 0.0 7.0 0.00 0.00 0.00 78 1015.5
20260509033106 60 222 1.0 6.0 0.00 0.00 0.00 77 1015.5
20260509031554 60 211 1.0 5.0 0.00 0.00 0.00 77 1015.4
20260509030054 61 220 1.0 9.0 0.00 0.00 0.00 76 1015.3
20260509024603 62 247 1.0 5.0 0.00 0.00 0.00 75 1015.3
20260509023055 63 193 2.0 9.0 0.00 0.00 0.00 74 1015.2
20260509021554 64 194 3.0 10.0 0.00 0.00 0.00 73 1015.2
20260509020056 65 221 3.0 10.0 0.00 0.00 0.00 71 1015.2
20260509014552 65 182 5.0 13.0 0.00 0.00 0.00 71 1015.2
20260509013059 66 200 5.0 11.0 0.00 0.00 0.00 71 1015.3
20260509011602 67 186 3.0 10.0 0.00 0.00 0.00 71 1015.4
20260509010056 68 138 5.0 10.0 0.00 0.00 0.00 69 1015.3
20260509004559 68 190 4.0 15.0 0.00 0.00 0.00 68 1015.4
20260509003059 68 147 5.0 11.0 0.00 0.00 0.00 69 1015.4
20260509001556 68 219 5.0 14.0 0.00 0.00 0.00 68 1015.5
20260509000057 68 165 6.0 17.0 0.00 0.00 0.00 69 1015.8
20260508234605 69 196 5.0 12.0 0.00 0.00 0.00 69 1015.9
20260508233103 69 223 5.0 16.0 0.00 0.00 0.00 69 1016.0
20260508231559 70 188 7.0 15.0 0.00 0.00 0.00 68 1016.0
20260508230057 71 160 5.0 13.0 0.00 0.00 0.00 67 1016.2
20260508224612 71 184 4.0 12.0 0.00 0.00 0.00 67 1016.3
20260508223055 71 229 4.0 12.0 0.00 0.00 0.00 67 1016.6
20260508221611 71 264 5.0 11.0 0.00 0.00 0.00 67 1016.8
20260508220055 70 225 6.0 16.0 0.00 0.00 0.00 69 1016.8
20260508214559 71 194 4.0 11.0 0.00 0.00 0.00 68 1017.1
20260508213057 72 153 3.0 12.0 0.00 0.00 0.00 68 1017.2
20260508210056 72 252 2.0 10.0 0.00 0.00 0.00 67 1017.3
20260508204600 72 207 4.0 11.0 0.00 0.00 0.00 67 1017.3
20260508203100 71 192 2.0 11.0 0.00 0.00 0.00 68 1017.5
20260508201558 69 219 4.0 9.0 0.00 0.00 0.00 70 1017.7
20260508200108 68 253 4.0 10.0 0.00 0.00 0.00 70 1017.9
20260508194555 67 151 3.0 9.0 0.00 0.00 0.00 71 1018.1
20260508193102 67 237 4.0 9.0 0.00 0.00 0.00 72 1018.1
20260508191554 65 257 3.0 10.0 0.00 0.00 0.00 74 1018.2
20260508190052 65 279 4.0 10.0 0.00 0.00 0.00 74 1018.3
20260508184555 65 200 3.0 7.0 0.00 0.00 0.00 75 1018.5
20260508183113 63 263 5.0 10.0 0.00 0.00 0.00 76 1018.5
20260508181609 63 238 2.0 10.0 0.00 0.00 0.00 77 1018.8
20260508180055 63 232 5.0 12.0 0.00 0.00 0.00 75 1018.8
20260508174554 64 248 2.0 9.0 0.00 0.00 0.00 75 1018.9
20260508173109 62 283 5.0 9.0 0.00 0.00 0.00 76 1018.9
20260508171557 63 161 1.0 8.0 0.00 0.00 0.00 74 1018.8
20260508170100 62 288 2.0 7.0 0.00 0.00 0.00 75 1018.9
20260508164552 60 38 2.0 6.0 0.00 0.00 0.00 78 1018.8
20260508163053 60 294 2.0 5.0 0.00 0.00 0.00 79 1018.8
20260508161552 58 309 2.0 5.0 0.00 0.00 0.00 81 1018.9
20260508160058 56 0 2.0 5.0 0.00 0.00 0.00 83 1018.8
20260508154553 56 0 0.0 2.0 0.00 0.00 0.00 85 1018.8
20260508153054 56 130 1.0 3.0 0.00 0.00 0.00 87 1018.7
20260508151553 55 175 1.0 3.0 0.00 0.00 0.00 89 1018.8
20260508150121 54 288 1.0 3.0 0.00 0.00 0.00 90 1018.7
20260508144602 53 210 1.0 5.0 0.00 0.00 0.00 91 1018.6
20260508143054 53 157 1.0 4.0 0.00 0.00 0.00 91 1018.4
20260508141601 53 266 0.0 3.0 0.00 0.00 0.00 92 1018.3
20260508140100 53 231 1.0 3.0 0.00 0.00 0.00 92 1018.2
20260508134556 53 257 0.0 3.0 0.00 0.00 0.00 92 1018.1
20260508133053 53 234 0.0 3.0 0.00 0.00 0.00 92 1018.0
20260508131559 53 0 0.0 3.0 0.00 0.00 0.00 92 1018.0
20260508130054 52 0 1.0 2.0 0.00 0.00 0.00 92 1017.9
20260508124601 52 247 0.0 3.0 0.00 0.00 0.00 92 1017.8
20260508123055 52 0 0.0 2.0 0.00 0.00 0.00 92 1017.7
20260508121556 52 242 2.0 3.0 0.00 0.00 0.00 92 1017.8
20260508120055 52 0 0.0 2.0 0.00 0.00 0.00 92 1017.7
20260508114600 52 0 0.0 1.0 0.00 0.00 0.00 92 1017.9
20260508113123 52 0 1.0 3.0 0.00 0.00 0.00 92 1017.8
20260508111558 52 0 0.0 4.0 0.00 0.00 0.00 92 1017.9
20260508110053 52 0 1.0 3.0 0.00 0.00 0.00 91 1018.1
20260508103105 52 132 1.0 4.0 0.00 0.00 0.00 91 1018.1
20260508101603 53 193 0.0 3.0 0.00 0.00 0.00 91 1018.0
20260508100100 53 0 0.0 3.0 0.00 0.00 0.00 90 1018.0
20260508094601 53 169 0.0 4.0 0.00 0.00 0.00 90 1018.1
20260508093102 53 152 0.0 7.0 0.00 0.00 0.00 90 1018.0
20260508091556 53 183 2.0 4.0 0.00 0.00 0.00 90 1018.0
20260508090100 53 163 1.0 6.0 0.00 0.00 0.00 90 1017.9
20260508084559 53 135 2.0 6.0 0.00 0.00 0.00 90 1017.9
20260508083058 53 138 0.0 4.0 0.00 0.00 0.00 90 1017.8
20260508081604 53 0 0.0 6.0 0.00 0.00 0.00 90 1017.9
20260508080052 53 134 1.0 5.0 0.00 0.00 0.00 90 1018.0